Augusta, ME

5:46 AM EDT on April 29, 2017 (GMT -0400)
Augusta State

Weather History for KAUG - December, 2012

Change the Weather History Date:

Wednesday, December 26, 2012

  Actual Average Record
Temperature  
Mean Temperature 21 °F 22 °F  
Max Temperature 30 °F 30 °F 54 °F (1982)
Min Temperature 12 °F 15 °F -13 °F (1968)
Degree Days  
Heating Degree Days 44 43  
Month to date heating degree days 991  
Since 1 July heating degree days 2539  
Cooling Degree Days 0 0  
Month to date cooling degree days 0  
Year to date cooling degree days 388  
Moisture  
Dew Point 11 °F    
Average Humidity 66    
Maximum Humidity 84    
Minimum Humidity 47    
Precipitation  
Precipitation 0.00 in 0.09 in 2.93 in (1969)
Month to date precipitation 2.80  
Year to date precipitation 41.44  
Sea Level Pressure  
Sea Level Pressure 30.28 in    
Wind  
Wind Speed 5 mph (NNE)    
Max Wind Speed 10 mph    
Max Gust Speed -    
Visibility 10 miles    
Events      
T = Trace of Precipitation, MM = Missing Value Source: NWS Daily Summary

Daily Weather History Graph

Daily Weather History Graph

Search for Another Location

Airport or City:

Trip Planner

Search our weather history database for the weather conditions in past years. The results will help you decide how hot, cold, wet, or windy it might be!

Date:

Astronomy

Dec. 26, 2012 Rise Set
Actual Time 7:14 AM EST 4:06 PM EST
Civil Twilight 6:40 AM EST 4:39 PM EST
Nautical Twilight 6:04 AM EST 5:16 PM EST
Astronomical Twilight 5:28 AM EST 5:51 PM EST
Moon 2:58 PM EST (12/26) 5:33 AM EST (12/26)
Length of Visible Light 9h 58m
Length of Day
8h 52m
Waxing Gibbous, 97% of the Moon is Illuminated
Dec 26
Waxing Gibbous
Dec 28
Full
Jan 4
Last Quarter
Jan 11
New
Jan 18
First Quarter

Hourly Weather History & Observations

Time (EST) Temp. Windchill Dew Point Humidity Pressure Visibility Wind Dir Wind Speed Gust Speed Precip Events Conditions
12:53 AM 16.0 °F 7.4 °F 10.0 °F 77% 30.23 in 10.0 mi North 5.8 mph - N/A   Clear
1:53 AM 15.1 °F 7.7 °F 9.0 °F 77% 30.26 in 10.0 mi NW 4.6 mph - N/A   Clear
2:53 AM 14.0 °F 6.5 °F 8.1 °F 77% 30.27 in 10.0 mi North 4.6 mph - N/A   Clear
3:53 AM 15.1 °F - 8.1 °F 74% 30.29 in 10.0 mi Calm Calm - N/A   Clear
4:53 AM 15.1 °F 9.4 °F 8.1 °F 74% 30.30 in 10.0 mi NW 3.5 mph - N/A   Clear
5:53 AM 12.9 °F - 8.1 °F 81% 30.30 in 10.0 mi Calm Calm - N/A   Clear
6:53 AM 12.9 °F 6.9 °F 9.0 °F 84% 30.31 in 10.0 mi ENE 3.5 mph - N/A   Clear
7:53 AM 14.0 °F 1.2 °F 8.1 °F 77% 30.30 in 10.0 mi North 10.4 mph - N/A   Clear
8:53 AM 17.1 °F 8.7 °F 9.0 °F 71% 30.35 in 10.0 mi NNW 5.8 mph - N/A   Clear
9:53 AM 21.9 °F 13.4 °F 10.9 °F 63% 30.35 in 10.0 mi NNE 6.9 mph - N/A   Clear
10:53 AM 25.0 °F 15.5 °F 10.9 °F 55% 30.32 in 10.0 mi NNE 9.2 mph - N/A   Clear
11:53 AM 27.0 °F 18.0 °F 12.0 °F 53% 30.30 in 10.0 mi North 9.2 mph - N/A   Clear
12:53 PM 30.0 °F 24.1 °F 12.0 °F 47% 30.27 in 10.0 mi NNW 5.8 mph - N/A   Clear
1:53 PM 30.0 °F 25.2 °F 12.9 °F 49% 30.28 in 10.0 mi NNE 4.6 mph - N/A   Clear
2:53 PM 28.9 °F 23.9 °F 12.9 °F 51% 30.30 in 10.0 mi ENE 4.6 mph - N/A   Clear
3:53 PM 27.0 °F 23.0 °F 14.0 °F 58% 30.30 in 10.0 mi ENE 3.5 mph - N/A   Clear
4:53 PM 26.1 °F - 14.0 °F 60% 30.30 in 10.0 mi Calm Calm - N/A   Clear
5:53 PM 25.0 °F 19.3 °F 12.9 °F 60% 30.29 in 10.0 mi NE 4.6 mph - N/A   Clear
6:53 PM 24.1 °F 17.0 °F 14.0 °F 65% 30.28 in 10.0 mi NNE 5.8 mph - N/A   Clear
7:53 PM 24.1 °F 18.2 °F 14.0 °F 65% 30.28 in 10.0 mi NE 4.6 mph - N/A   Clear
8:53 PM 24.1 °F 15.2 °F 14.0 °F 65% 30.26 in 10.0 mi NE 8.1 mph - N/A   Clear
9:53 PM 23.0 °F 13.9 °F 12.9 °F 65% 30.24 in 10.0 mi NE 8.1 mph - N/A   Clear
10:53 PM 21.9 °F 12.5 °F 12.9 °F 68% 30.22 in 10.0 mi NNE 8.1 mph - N/A   Scattered Clouds
11:01 PM 21.2 °F 10.9 °F 12.2 °F 68% 30.19 in 10.0 mi NNE 9.2 mph - N/A   Mostly Cloudy
11:53 PM 21.9 °F 11.0 °F 12.0 °F 66% 30.17 in 10.0 mi NNE 10.4 mph - N/A   Overcast